Cairns, Australia

7:43 AM AEST on June 28, 2017 (GMT +1000)
Cairns International

Weather History for YBCS - April, 2013

Change the Weather History Date:

Tuesday, April 23, 2013

  Actual Average Record
Temperature  
Mean Temperature 78 °F -  
Max Temperature 86 °F 82 °F 87 °F (1998)
Min Temperature 70 °F 69 °F 64 °F (2002)
Cooling Degree Days 13    
Growing Degree Days 28 (Base 50)    
Moisture  
Dew Point 71 °F    
Average Humidity 77    
Maximum Humidity 95    
Minimum Humidity 46    
Precipitation  
Precipitation 0.00 in 0.18 in - ()
Sea Level Pressure  
Sea Level Pressure 29.94 in    
Wind  
Wind Speed 5 mph ()    
Max Wind Speed 13 mph    
Max Gust Speed -    
Visibility 7.2 miles    
Events      
Averages and records for this station are not official NWS values.
T = Trace of Precipitation, MM = Missing Value Source: Averaged Metar Reports

Daily Weather History Graph

Daily Weather History Graph

Search for Another Location

Airport or City:

Trip Planner

Search our weather history database for the weather conditions in past years. The results will help you decide how hot, cold, wet, or windy it might be!

Date:

Astronomy

Apr. 23, 2013 Rise Set
Actual Time 6:27 AM AEST 6:03 PM AEST
Civil Twilight 6:05 AM AEST 6:25 PM AEST
Nautical Twilight 5:39 AM AEST 6:50 PM AEST
Astronomical Twilight 5:14 AM AEST 7:16 PM AEST
Moon 3:58 PM AEST (4/23) 3:38 AM AEST (4/23)
Length of Visible Light 12h 20m
Length of Day
11h 36m
Waxing Gibbous, 90% of the Moon is Illuminated
Apr 23
Waxing Gibbous
Apr 26
Full
May 2
Last Quarter
May 10
New
May 18
First Quarter

Hourly Weather History & Observations

Time (AEST) Temp. Heat Index Dew Point Humidity Pressure Visibility Wind Dir Wind Speed Gust Speed Precip Events Conditions
12:00 AM 75 °F - 72 °F 86% 29.94 in - South 5.8 mph - -  
12:00 AM 75.2 °F - 71.6 °F 89% 29.92 in 6.2 mi South 5.8 mph - N/A   Partly Cloudy
12:30 AM 77.0 °F - 71.6 °F 83% 29.92 in 6.2 mi SSE 1.2 mph - N/A   Partly Cloudy
1:00 AM 76 °F - 71 °F 80% 29.94 in - South 4.6 mph - -  
1:00 AM 75.2 °F - 71.6 °F 89% 29.92 in 6.2 mi South 4.6 mph - N/A   Scattered Clouds
1:30 AM 75.2 °F - 71.6 °F 89% 29.92 in 6.2 mi SE 5.8 mph - N/A   Scattered Clouds
2:00 AM 73.4 °F - 71.6 °F 94% 29.92 in 6.2 mi SSE 1.2 mph - N/A   Scattered Clouds
2:30 AM 73.4 °F - 71.6 °F 94% 29.92 in 6.2 mi SSE 4.6 mph - N/A   Scattered Clouds
3:00 AM 73 °F - 72 °F 94% 29.91 in - Calm Calm - -   Overcast
3:00 AM 73.4 °F - 71.6 °F 94% 29.92 in 6.2 mi Calm Calm - N/A   Scattered Clouds
3:30 AM 73.4 °F - 71.6 °F 94% 29.89 in 6.2 mi WSW 1.2 mph - N/A   Scattered Clouds
4:00 AM 75 °F - 71 °F 83% 29.92 in - SSE 9.2 mph - -  
4:00 AM 75.2 °F - 71.6 °F 89% 29.89 in 6.2 mi SSE 9.2 mph - N/A   Scattered Clouds
4:30 AM 73.4 °F - 71.6 °F 94% 29.92 in 6.2 mi SSE 5.8 mph - N/A   Scattered Clouds
5:00 AM 73.4 °F - 71.6 °F 94% 29.92 in 6.2 mi South 4.6 mph - N/A   Partly Cloudy
5:30 AM 73.4 °F - 71.6 °F 94% 29.92 in 6.2 mi SE 5.8 mph - N/A   Partly Cloudy
6:00 AM 72 °F - 71 °F 94% 29.93 in 19 mi South 4.6 mph - -   Partly Cloudy
6:00 AM 71.6 °F - 69.8 °F 94% 29.92 in 6.2 mi South 4.6 mph - N/A   Partly Cloudy
6:30 AM 71.6 °F - 69.8 °F 94% 29.92 in 6.2 mi WSW 2.3 mph - N/A   Partly Cloudy
7:00 AM 71 °F - 70 °F 95% 29.96 in - Calm Calm - -  
7:00 AM 71.6 °F - 69.8 °F 94% 29.95 in 6.2 mi Calm Calm - N/A   Partly Cloudy
7:30 AM 73.4 °F - 69.8 °F 88% 29.95 in 6.2 mi ENE 1.2 mph - N/A   Partly Cloudy
8:00 AM 75.2 °F - 71.6 °F 89% 29.98 in 6.2 mi WNW 3.5 mph - N/A   Partly Cloudy
8:30 AM 78.8 °F - 69.8 °F 74% 29.98 in 6.2 mi SSE 9.2 mph - N/A   Partly Cloudy
9:00 AM 79 °F - 69 °F 65% 30.00 in 19 mi SE 9.2 mph - -   Partly Cloudy
9:00 AM 78.8 °F - 69.8 °F 74% 29.98 in 6.2 mi SE 9.2 mph - N/A   Partly Cloudy
9:30 AM 80.6 °F 83.9 °F 69.8 °F 70% 29.98 in 6.2 mi South 9.2 mph - N/A   Partly Cloudy
10:00 AM 82 °F - 70 °F 59% 30.00 in - SSE 6.9 mph - -  
10:00 AM 82.4 °F 86.3 °F 69.8 °F 66% 29.98 in 6.2 mi SSE 6.9 mph - N/A   Scattered Clouds
10:30 AM 84.2 °F 88.4 °F 69.8 °F 62% 29.98 in 6.2 mi SE 6.9 mph - N/A   Scattered Clouds
11:00 AM 82.4 °F 85.4 °F 68.0 °F 62% 29.98 in 6.2 mi SSW 6.9 mph - N/A   Partly Cloudy
11:30 AM 84.2 °F 88.4 °F 69.8 °F 62% 29.95 in 6.2 mi South 5.8 mph - N/A   Partly Cloudy
12:00 PM 85 °F - 67 °F 46% 29.95 in 19 mi ESE 2.3 mph - -   Partly Cloudy
12:00 PM 84.2 °F 87.3 °F 68.0 °F 58% 29.95 in 6.2 mi ESE 2.3 mph - N/A   Partly Cloudy
12:30 PM 86.0 °F 90.4 °F 69.8 °F 58% 29.92 in 6.2 mi NE 11.5 mph - N/A   Partly Cloudy
1:00 PM 85 °F - 71 °F 53% 29.94 in - NE 12.7 mph - -  
1:00 PM 86.0 °F 90.4 °F 69.8 °F 58% 29.92 in 6.2 mi NE 12.7 mph - N/A   Partly Cloudy
1:30 PM 84.2 °F 88.4 °F 69.8 °F 62% 29.92 in 6.2 mi NE 12.7 mph - N/A   Partly Cloudy
2:00 PM 84.2 °F 89.6 °F 71.6 °F 66% 29.89 in 6.2 mi NE 12.7 mph - N/A   Partly Cloudy
2:30 PM 84.2 °F 88.4 °F 69.8 °F 62% 29.89 in 6.2 mi NE 11.5 mph - N/A   Partly Cloudy
3:00 PM 85 °F - 71 °F 54% 29.89 in 19 mi ENE 11.5 mph - -   Partly Cloudy
3:00 PM 84.2 °F 89.6 °F 71.6 °F 66% 29.89 in 6.2 mi ENE 11.5 mph - N/A   Scattered Clouds
3:30 PM 84.2 °F 89.6 °F 71.6 °F 66% 29.89 in 6.2 mi ENE 11.5 mph - N/A   Scattered Clouds
4:00 PM 83 °F - 72 °F 61% 29.89 in - NE 11.5 mph - -  
4:00 PM 84.2 °F 89.6 °F 71.6 °F 66% 29.89 in 6.2 mi NE 11.5 mph - N/A   Partly Cloudy
4:30 PM 84.2 °F 87.3 °F 68.0 °F 58% 29.89 in 6.2 mi East 10.4 mph - N/A   Partly Cloudy
5:00 PM 82.4 °F 86.3 °F 69.8 °F 66% 29.89 in 6.2 mi ENE 9.2 mph - N/A   Partly Cloudy
5:30 PM 82.4 °F 87.2 °F 71.6 °F 70% 29.89 in 6.2 mi ENE 9.2 mph - N/A   Partly Cloudy
6:00 PM 80 °F - 71 °F 66% 29.91 in - ENE 5.8 mph - -  
6:00 PM 80.6 °F 83.9 °F 69.8 °F 70% 29.89 in 6.2 mi ENE 5.8 mph - N/A   Scattered Clouds
6:30 PM 80.6 °F 83.9 °F 69.8 °F 70% 29.92 in 6.2 mi SSW 5.8 mph - N/A   Scattered Clouds
7:00 PM 79 °F - 71 °F 69% 29.94 in - SSW 5.8 mph - -  
7:00 PM 78.8 °F - 71.6 °F 78% 29.92 in 6.2 mi SSW 5.8 mph - N/A   Mostly Cloudy
7:30 PM 78.8 °F - 71.6 °F 78% 29.95 in 6.2 mi South 5.8 mph - N/A   Mostly Cloudy
8:00 PM 78.8 °F - 71.6 °F 78% 29.95 in 6.2 mi South 5.8 mph - N/A   Mostly Cloudy
8:30 PM 78.8 °F - 71.6 °F 78% 29.98 in 6.2 mi South 5.8 mph - N/A   Scattered Clouds
9:00 PM 77 °F - 71 °F 77% 29.99 in - South 4.6 mph - -  
9:00 PM 77.0 °F - 71.6 °F 83% 29.98 in 6.2 mi South 4.6 mph - N/A   Scattered Clouds
9:30 PM 77.0 °F - 71.6 °F 83% 29.98 in 6.2 mi South 4.6 mph - N/A   Scattered Clouds
10:00 PM 77 °F - 71 °F 76% 30.00 in - South 4.6 mph - -  
10:00 PM 77.0 °F - 71.6 °F 83% 29.98 in 6.2 mi South 4.6 mph - N/A   Scattered Clouds
10:30 PM 77.0 °F - 71.6 °F 83% 29.98 in 6.2 mi South 4.6 mph - N/A   Partly Cloudy
11:00 PM 75.2 °F - 71.6 °F 89% 29.98 in 6.2 mi SSE 4.6 mph - N/A   Partly Cloudy
11:30 PM 75.2 °F - 71.6 °F 89% 29.98 in 6.2 mi South 4.6 mph - N/A   Partly Cloudy